IRIDIUM 71 [-]

Last updated on Wed Jun 28 2023 00:03:02 GMT+0000 (Coordinated Universal Time)

1 25320U 98026B 23178.33065360 .00000491 00000+0 15022-3 0 9990 2 25320 86.3975 34.3047 0001353 18.7091 341.4157 14.39810882320072
UTC large
Height (km)
Speed (km/s)
/
Latitude / Longitude
Inclination (degrees)
Orbital Period (minutes)
Azimuth
Elevation
Range (km)
Doppler Factor

Next 0 passes for location: London (51.5072 / 0.1276)

Sorry there are no passes over London.
IRIDIUM 71 [-]